This demonstration page uses our WeatherBlox Daily Observations layout. Learn more.

Left ArrowRight Arrow

39.12711, -84.51439

Hourly Observations for July 22, 2017

Temp ( °F °C ) Dew Point ( °F °C ) Humidity (%) Winds ( mph kmh ) Pressure ( in mb ) Visibility ( mi km ) Precip ( " mm )
12:53 am 00:53 Clear 74 23.3 73 22.8 97 97 N N/A 29.94 1014 10 16 N/A
1:53 am 01:53 Clear 73 22.8 73 22.8 100 100 SW 3 6 29.92 1013 10 16 N/A
2:53 am 02:53 Clear 73 22.8 73 22.8 100 100 N N/A 29.90 1013 10 16 N/A
3:53 am 03:53 Partly Cloudy 73 22.8 73 22.8 100 100 N N/A 29.89 1012 10 16 N/A
4:53 am 04:53 Mostly Cloudy 74 23.3 74 23.3 100 100 N N/A 29.89 1012 10 16 N/A
5:53 am 05:53 Mostly Clear 73 22.8 73 22.8 100 100 N N/A 29.87 1012 8 13 N/A
6:53 am 06:53 Cloudy 73 22.8 73 22.8 100 100 N N/A 29.89 1012 8 13 N/A
7:53 am 07:53 Mostly Cloudy 77 25 75 23.9 94 94 N N/A 29.90 1013 9 14 N/A
8:38 am 08:38 Sunny 78 25.6 77 25 97 97 SSW 5 7 29.91 1013 8 13 N/A
8:53 am 08:53 Sunny 79 26.1 77 25 94 94 SSW 3 6 29.89 1012 8 13 N/A
9:53 am 09:53 Sunny 82 27.8 78 25.6 88 88 S 7 11 29.90 1012 9 14 N/A
10:53 am 10:53 Mostly Sunny 86 30 80 26.7 83 83 WSW 8 13 29.89 1012 9 14 N/A
11:53 am 11:53 Mostly Sunny 88 31.1 79 26.1 75 75 WSW 17 28 29.88 1012 8 13 N/A
12:53 pm 12:53 Partly Cloudy 89 31.7 78 25.6 70 70 WSW 14 22 29.87 1011 10 16 N/A
1:53 pm 13:53 Sunny 89 31.7 76 24.4 65 65 SW 15 24 29.81 1010 10 16 N/A
2:53 pm 14:53 Sunny 89 31.7 76 24.4 65 65 SW 12 19 29.77 1008 10 16 N/A
3:53 pm 15:53 Sunny 89 31.7 77 25 68 68 SSW 12 19 29.79 1009 10 16 N/A
4:53 pm 16:53 Sunny 91 32.8 77 25 64 64 W 16 26 29.78 1009 10 16 N/A
5:53 pm 17:53 Sunny 90 32.2 77 25 66 66 W 13 20 29.78 1009 10 16 N/A
6:53 pm 18:53 Partly Cloudy 89 31.7 77 25 68 68 WSW 8 13 29.78 1009 10 16 N/A
7:31 pm 19:31 Mostly Cloudy with Thunderstorms 88 31.1 76 24.4 68 68 WNW 6 9 29.77 1008 10 16 N/A
7:53 pm 19:53 Mostly Cloudy with Thunderstorms 88 31.1 74 23.3 63 63 WSW 20 31 29.80 1009 10 16 N/A
8:16 pm 20:16 Mostly Cloudy 83 28.3 74 23.3 74 74 WNW 8 13 29.83 1010 10 16 N/A
8:53 pm 20:53 Sunny 82 27.8 75 23.9 79 79 WSW 8 13 29.80 1009 10 16 N/A
9:53 pm 21:53 Partly Cloudy 81 27.2 74 23.3 79 79 SW 3 6 29.82 1010 10 16 N/A
10:53 pm 22:53 Mostly Cloudy 79 26.1 76 24.4 90 90 SW 5 7 29.82 1010 10 16 N/A
11:18 pm 23:18 Mostly Cloudy with Nearby Thunderstorms 78 25.6 76 24.4 93 93 SSE 5 7 29.85 1011 10 16 N/A
11:36 pm 23:36 Mostly Cloudy 80 26.7 76 24.4 87 87 N N/A 29.83 1010 10 16 N/A
11:46 pm 23:46 Mostly Cloudy with Nearby Thunderstorms 78 25.6 76 24.4 93 93 VRB 5 7 29.83 1010 10 16 N/A
11:53 pm 23:53 Mostly Cloudy with Nearby Thunderstorms 80 26.7 75 23.9 85 85 WSW 16 26 29.84 1011 10 16 N/A

Powered by AerisWeather